TimeCST,TemperatureF,Dew PointF,Humidity,Sea Level PressureIn,VisibilityMPH,Wind Direction,Wind SpeedMPH,Gust SpeedMPH,PrecipitationIn,Events,Conditions,WindDirDegrees,DateUTC
12:01 AM,46.4,44.6,93,30.31,3.0,SE,3.5,-,N/A,,Scattered Clouds,130,2011-12-14 06:01:00
12:54 AM,46.9,46.0,97,30.29,3.0,Calm,Calm,-,0.00,,Mostly Cloudy,0,2011-12-14 06:54:00
1:54 AM,46.9,45.0,93,30.28,3.0,SE,4.6,-,N/A,,Mostly Cloudy,140,2011-12-14 07:54:00
2:54 AM,46.4,44.6,93,30.26,3.0,SSE,4.6,-,N/A,,Mostly Cloudy,150,2011-12-14 08:54:00
3:54 AM,45.0,44.1,97,30.24,2.5,SE,4.6,-,N/A,,Scattered Clouds,140,2011-12-14 09:54:00
4:10 AM,46.4,44.6,93,30.23,3.0,SE,4.6,-,N/A,,Clear,130,2011-12-14 10:10:00
4:26 AM,46.4,44.6,93,30.22,2.5,SE,5.8,-,N/A,,Clear,140,2011-12-14 10:26:00
4:52 AM,46.4,44.6,93,30.22,3.0,SE,5.8,-,N/A,,Clear,140,2011-12-14 10:52:00
4:54 AM,46.0,45.0,96,30.22,3.0,SE,5.8,-,N/A,,Partly Cloudy,140,2011-12-14 10:54:00
5:04 AM,46.4,44.6,93,30.21,2.5,SE,6.9,-,N/A,,Mostly Cloudy,140,2011-12-14 11:04:00
5:15 AM,46.4,44.6,93,30.21,3.0,SSE,4.6,-,N/A,,Mostly Cloudy,150,2011-12-14 11:15:00
5:54 AM,48.0,46.0,93,30.21,4.0,South,6.9,-,N/A,,Scattered Clouds,170,2011-12-14 11:54:00
6:54 AM,48.0,46.9,96,30.22,4.0,South,5.8,-,N/A,,Clear,180,2011-12-14 12:54:00
7:54 AM,48.9,46.9,93,30.20,3.0,SSE,8.1,-,N/A,,Clear,160,2011-12-14 13:54:00
8:40 AM,51.8,48.2,88,30.21,6.0,SSW,8.1,-,N/A,,Mostly Cloudy,200,2011-12-14 14:40:00
8:54 AM,53.1,48.9,86,30.21,7.0,South,9.2,-,N/A,,Overcast,180,2011-12-14 14:54:00
9:54 AM,55.0,50.0,83,30.21,5.0,SSW,12.7,17.3,N/A,,Haze,200,2011-12-14 15:54:00
10:54 AM,55.9,51.1,84,30.19,10.0,SSW,15.0,-,N/A,,Overcast,210,2011-12-14 16:54:00
11:33 AM,55.4,51.8,88,30.16,7.0,SSW,10.4,-,N/A,,Overcast,200,2011-12-14 17:33:00
11:54 AM,55.9,51.1,84,30.15,6.0,SSW,13.8,-,N/A,,Haze,210,2011-12-14 17:54:00
12:54 PM,57.0,52.0,83,30.13,10.0,SSW,12.7,-,N/A,,Overcast,200,2011-12-14 18:54:00
1:54 PM,57.9,52.0,81,30.09,10.0,SSW,16.1,23.0,N/A,,Overcast,200,2011-12-14 19:54:00
2:54 PM,60.8,51.8,72,30.05,10.0,South,13.8,19.6,N/A,,Mostly Cloudy,180,2011-12-14 20:54:00
3:14 PM,60.8,53.6,77,30.05,10.0,South,10.4,-,N/A,,Clear,190,2011-12-14 21:14:00
3:37 PM,60.8,53.6,77,30.05,10.0,SSW,11.5,18.4,N/A,,Mostly Cloudy,200,2011-12-14 21:37:00
3:54 PM,60.1,53.1,78,30.05,10.0,South,8.1,-,N/A,,Overcast,190,2011-12-14 21:54:00
4:54 PM,59.0,52.0,78,30.05,10.0,SSW,6.9,-,N/A,,Overcast,200,2011-12-14 22:54:00
5:05 PM,60.8,51.8,72,30.04,10.0,South,6.9,-,N/A,,Overcast,180,2011-12-14 23:05:00
5:54 PM,59.0,52.0,78,30.03,10.0,South,6.9,-,N/A,,Partly Cloudy,170,2011-12-14 23:54:00
6:54 PM,59.0,52.0,78,30.01,10.0,South,11.5,-,N/A,,Mostly Cloudy,170,2011-12-15 00:54:00
7:54 PM,59.0,52.0,78,29.99,10.0,South,12.7,-,N/A,,Overcast,190,2011-12-15 01:54:00
8:54 PM,61.0,52.0,72,29.96,10.0,SSW,17.3,23.0,N/A,,Overcast,200,2011-12-15 02:54:00
9:54 PM,62.1,52.0,70,29.95,10.0,South,17.3,21.9,0.00,,Overcast,190,2011-12-15 03:54:00
10:54 PM,63.0,52.0,67,29.98,10.0,SSW,16.1,27.6,N/A,,Overcast,210,2011-12-15 04:54:00
11:44 PM,57.2,53.6,88,29.99,7.0,SSW,9.2,-,0.09,Rain-Thunderstorm,Light Rain,200,2011-12-15 05:44:00
11:54 PM,57.9,53.1,84,29.98,5.0,SSW,9.2,-,0.13,Rain-Thunderstorm,Thunderstorms and Rain,200,2011-12-15 05:54:00